Location: Bauerbach
(50.4985°N, 10.3912°E)
Time: 18:02:32
(UTC+00:00)

Cosmos 2082 Rocket - Pass Details

Date: 13 January 2026
Orbit: 831 x 853 km, 71.0° (Epoch: 16 February)

Event Time Altitude Azimuth Distance (km) Brightness Sun altitude
Exits shadow 03:41:21 16° 9° (N) 2,048 4.3 -33.1°
Maximum altitude 03:43:19 19° 35° (NE) 1,894 4.4 -32.8°
Drops below altitude 10° 03:47:20 10° 80° (E) 2,472 5.5 -32.1°
Sets 03:50:31 0° 98° (E) 3,408 6.4 -31.6°
